Location: Unspecified
(0.0000°N, 0.0000°E)
Time: 13:22:00
(UTC+02:00)

Palapa 6 Rocket - Visible Passes

Search period start: 20 October 2014 00:00
Search period end: 29 October 2014 23:00
Orbit: 486 x 1234 km, 22.7° (Epoch: 19 October)

Date Brightness Start Highest point End Pass type
(mag) Time Alt. Az. Time Alt. Az. Time Alt. Az.
20 Oct 6.2 21:22:30 10° NNW 21:26:29 14° N 21:27:16 14° NNE visible
21 Oct 6.1 21:10:18 10° NNW 21:14:35 15° N 21:16:02 15° NNE visible
22 Oct 6.0 20:58:07 10° NNW 21:02:40 16° NNE 21:04:49 15° NNE visible
22 Oct 6.7 22:46:17 10° NW 22:46:53 12° NW 22:46:53 12° NW visible
23 Oct 6.0 20:45:56 10° NNW 20:50:44 17° NNE 20:53:40 14° NE visible
23 Oct 6.4 22:33:59 10° NW 22:35:44 17° NW 22:35:44 17° NW visible
24 Oct 5.9 20:33:47 10° NNW 20:38:47 18° NNE 20:42:35 13° NE visible
24 Oct 6.0 22:21:43 10° NW 22:24:39 23° NNW 22:24:39 23° NNW visible
25 Oct 5.8 20:21:38 10° NNW 20:26:48 20° NNE 20:31:33 12° ENE visible
25 Oct 5.6 22:09:31 10° NW 22:13:38 30° NNW 22:13:38 30° NNW visible
26 Oct 5.7 19:09:31 10° NNW 19:14:48 21° NNE 19:20:31 10° ENE visible
26 Oct 5.1 20:57:21 10° NW 21:02:42 41° NNW 21:02:42 41° NNW visible
27 Oct 5.5 18:57:26 10° NNW 19:02:47 23° NNE 19:08:41 10° ENE visible
27 Oct 4.6 20:45:13 10° NW 20:51:52 54° N 20:51:52 54° N visible
28 Oct 4.3 20:33:09 10° NW 20:40:31 63° NNE 20:41:06 62° NE visible
28 Oct 6.8 22:22:37 10° W 22:23:12 12° W 22:23:12 12° W visible
29 Oct 6.1 05:51:48 10° S 05:52:14 10° S 05:52:40 10° SSE visible
29 Oct 4.3 20:21:08 10° WNW 20:28:21 71° NNE 20:30:26 51° E visible
29 Oct 6.5 22:10:41 10° W 22:12:32 18° W 22:12:32 18° W visible
